Weather History for KRUT - September, 2011

Change the Weather History Date:

Tuesday, September 27, 2011

  Actual Average Record
Temperature  
Mean Temperature 68 °F -  
Max Temperature 81 °F - 81 °F (2011)
Min Temperature 55 °F - 28 °F (1957)
Degree Days  
Heating Degree Days 0    
Month to date heating degree days 116  
Since 1 July heating degree days 132  
Cooling Degree Days 3    
Month to date cooling degree days 45  
Year to date cooling degree days 346  
Growing Degree Days 18 (Base 50)    
Moisture  
Dew Point 59 °F    
Average Humidity 70    
Maximum Humidity 86    
Minimum Humidity 54    
Precipitation  
Precipitation 0.00 in - 0.98 in (1975)
Month to date precipitation 3.12  
Year to date precipitation 26.43  
Sea Level Pressure  
Sea Level Pressure 30.00 in    
Wind  
Wind Speed 6 mph (SSE)    
Max Wind Speed 12 mph    
Max Gust Speed 18 mph    
Visibility 10 miles    
Events      
T = Trace of Precipitation, MM = Missing Value Source: NWS Daily Summary

Daily Weather History Graph

Daily Weather History Graph

Search for Another Location

Airport or City:

Trip Planner

Search our weather history database for the weather conditions in past years. The results will help you decide how hot, cold, wet, or windy it might be!

Date:

Astronomy

Sep. 27, 2011 Rise Set
Actual Time 6:44 AM EDT 6:40 PM EDT
Civil Twilight 6:15 AM EDT 7:09 PM EDT
Nautical Twilight 5:42 AM EDT 7:42 PM EDT
Astronomical Twilight 5:08 AM EDT 8:16 PM EDT
Moon 6:57 AM EDT (9/27) 6:26 PM EDT (9/27)
Length of Visible Light 12h 53m
Length of Day
11h 56m
New Moon, 0% of the Moon is Illuminated
Sep 27
New Moon
Oct 3
First Quarter
Oct 11
Full
Oct 19
Last Quarter
Oct 26
New

Hourly Weather History & Observations

Time (EDT) Temp. Heat Index Dew Point Humidity Pressure Visibility Wind Dir Wind Speed Gust Speed Precip Events Conditions
6:15 AM - - - N/A% 30.00 in 10.0 mi SE 8.1 mph - N/A   Partly Cloudy
6:55 AM 55.4 °F - 51.8 °F 88% 30.01 in 10.0 mi SE 8.1 mph - N/A   Mostly Cloudy
7:15 AM 55.4 °F - 51.8 °F 88% 30.01 in 10.0 mi SE 5.8 mph - N/A   Overcast
7:35 AM 57.2 °F - 51.8 °F 82% 30.01 in 10.0 mi ESE 8.1 mph - N/A   Scattered Clouds
7:55 AM 57.2 °F - 53.6 °F 88% 30.02 in 1.0 mi SSE 3.5 mph - N/A   Mostly Cloudy
8:15 AM 55.4 °F - 53.6 °F 94% 30.01 in 5.0 mi Calm Calm - N/A   Scattered Clouds
8:35 AM 59.0 °F - 53.6 °F 82% 30.01 in 10.0 mi Calm Calm - N/A   Clear
8:55 AM 60.8 °F - 55.4 °F 82% 30.01 in 10.0 mi SSW 3.5 mph - N/A   Mostly Cloudy
9:15 AM 64.4 °F - 57.2 °F 77% 30.01 in 10.0 mi West 4.6 mph - N/A   Scattered Clouds
9:35 AM 62.6 °F - 57.2 °F 82% 30.01 in 10.0 mi West 3.5 mph - N/A   Scattered Clouds
9:55 AM 64.4 °F - 57.2 °F 77% 30.02 in 10.0 mi WSW 4.6 mph - N/A   Partly Cloudy
10:15 AM 66.2 °F - 57.2 °F 73% 30.01 in 10.0 mi Calm Calm - N/A   Clear
10:35 AM 68.0 °F - 59.0 °F 73% 30.01 in 10.0 mi Calm Calm - N/A   Scattered Clouds
10:55 AM 71.6 °F - 57.2 °F 60% 30.01 in 10.0 mi Calm Calm - N/A   Mostly Cloudy
11:15 AM 71.6 °F - 57.2 °F 60% 30.01 in 10.0 mi SSE 3.5 mph - N/A   Mostly Cloudy
11:55 AM 73.4 °F - 57.2 °F 57% 30.01 in 10.0 mi Calm Calm - N/A   Overcast
12:15 PM 75.2 °F - 57.2 °F 53% 30.00 in 10.0 mi South 3.5 mph - N/A   Overcast
12:35 PM 75.2 °F - 59.0 °F 57% 30.00 in 10.0 mi SSE 4.6 mph - N/A   Overcast
12:55 PM 77.0 °F - 60.8 °F 57% 29.99 in 10.0 mi ESE 3.5 mph - N/A   Mostly Cloudy
1:15 PM 78.8 °F - 60.8 °F 54% 29.98 in 10.0 mi SE 5.8 mph - N/A   Partly Cloudy
1:35 PM 78.8 °F - 60.8 °F 54% 29.98 in 10.0 mi SE 3.5 mph - N/A   Clear
1:55 PM 78.8 °F - 62.6 °F 57% 29.98 in 10.0 mi Calm Calm - N/A   Clear
2:15 PM 78.8 °F - 62.6 °F 57% 29.97 in 10.0 mi Calm Calm - N/A   Mostly Cloudy
2:35 PM 80.6 °F 81.8 °F 62.6 °F 54% 29.97 in 10.0 mi NW 3.5 mph - N/A   Scattered Clouds
3:15 PM 78.8 °F - 62.6 °F 57% 29.96 in 10.0 mi NW 5.8 mph - N/A   Partly Cloudy
3:35 PM 80.6 °F 81.8 °F 62.6 °F 54% 29.96 in 10.0 mi East 3.5 mph - N/A   Mostly Cloudy
3:55 PM 78.8 °F - 62.6 °F 57% 29.96 in 10.0 mi SE 5.8 mph - N/A   Mostly Cloudy
4:15 PM 78.8 °F - 60.8 °F 54% 29.95 in 10.0 mi ESE 8.1 mph - N/A   Mostly Cloudy
4:35 PM 77.0 °F - 60.8 °F 57% 29.95 in 10.0 mi ESE 9.2 mph - N/A   Mostly Cloudy
4:55 PM 75.2 °F - 62.6 °F 65% 29.95 in 10.0 mi SE 9.2 mph - N/A   Mostly Cloudy
5:15 PM 75.2 °F - 62.6 °F 65% 29.96 in 10.0 mi ESE 10.4 mph - N/A   Overcast
5:35 PM 75.2 °F - 62.6 °F 65% 29.96 in 10.0 mi ESE 9.2 mph - N/A   Overcast
5:55 PM 73.4 °F - 62.6 °F 69% 29.96 in 10.0 mi SE 6.9 mph - N/A   Overcast
6:15 PM 73.4 °F - 62.6 °F 69% 29.97 in 10.0 mi SE 6.9 mph - N/A   Mostly Cloudy
6:35 PM 73.4 °F - 62.6 °F 69% 29.97 in 10.0 mi SE 8.1 mph - N/A   Mostly Cloudy
6:55 PM 71.6 °F - 62.6 °F 73% 29.97 in 10.0 mi SE 8.1 mph - N/A   Scattered Clouds
7:15 PM 71.6 °F - 60.8 °F 69% 29.98 in 10.0 mi SE 12.7 mph - N/A   Overcast
7:35 PM 71.6 °F - 60.8 °F 69% 29.99 in 10.0 mi SSE 6.9 mph - N/A   Overcast
7:55 PM 71.6 °F - 60.8 °F 69% 30.00 in 10.0 mi SSE 5.8 mph - N/A   Overcast
8:15 PM 71.6 °F - 60.8 °F 69% 30.00 in 10.0 mi SSE 8.1 mph - N/A   Overcast
8:35 PM 71.6 °F - 60.8 °F 69% 30.01 in 10.0 mi South 6.9 mph - N/A   Overcast
8:55 PM 69.8 °F - 60.8 °F 73% 30.02 in 10.0 mi SSE 10.4 mph - N/A   Overcast
9:15 PM 69.8 °F - 60.8 °F 73% 30.01 in 10.0 mi South 6.9 mph - N/A   Overcast
9:35 PM 69.8 °F - 60.8 °F 73% 30.02 in 10.0 mi South 8.1 mph - N/A   Overcast
9:55 PM 69.8 °F - 60.8 °F 73% 30.02 in 10.0 mi South 9.2 mph - N/A   Overcast
10:35 PM 69.8 °F - 59.0 °F 68% 30.03 in 10.0 mi SSE 10.4 mph - N/A   Overcast
10:55 PM 69.8 °F - 57.2 °F 64% 30.03 in 10.0 mi SSE 6.9 mph 18.4 mph N/A   Overcast
11:15 PM 68.0 °F - 57.2 °F 68% 30.03 in 10.0 mi South 10.4 mph - N/A   Overcast
11:35 PM 68.0 °F - 57.2 °F 68% 30.03 in 10.0 mi South 11.5 mph 16.1 mph N/A   Overcast
11:55 PM 68.0 °F - 57.2 °F 68% 30.03 in 10.0 mi SSE 11.5 mph - N/A   Overcast